EW3345 Weather Reports


Display with metric or nautical units.
time (UTC)temp
F
wind
direction
speed
MPH
gust
MPH
rain 1hr
in
rain 24hr
in
rain mn
in
humidity
%
barometer
mb
20180716161417 85 72 1.0 5.0 0.00 0.00 0.00 47 1011.3
20180716160417 85 79 2.0 6.0 0.00 0.00 0.00 46 1011.3
20180716155417 85 83 0.0 6.0 0.00 0.00 0.00 47 1011.2
20180716154418 85 131 2.0 9.0 0.00 0.00 0.00 48 1011.1
20180716153417 85 61 2.0 9.0 0.00 0.00 0.00 46 1011.1
20180716152417 85 65 3.0 6.0 0.00 0.00 0.00 45 1011.1
20180716151417 85 57 2.0 7.0 0.00 0.00 0.00 46 1011.0
20180716150417 85 190 1.0 3.0 0.00 0.00 0.00 47 1010.9
20180716145417 85 119 2.0 5.0 0.00 0.00 0.00 47 1011.0
20180716144417 85 81 2.0 6.0 0.00 0.00 0.00 47 1011.0
20180716143417 86 274 0.0 9.0 0.00 0.00 0.00 48 1011.0
20180716142417 85 96 1.0 5.0 0.00 0.00 0.00 47 1011.1
20180716141417 85 76 2.0 7.0 0.00 0.00 0.00 47 1011.2
20180716140417 85 68 2.0 5.0 0.00 0.00 0.00 48 1011.3
20180716135417 85 45 3.0 7.0 0.00 0.00 0.00 48 1011.2
20180716134417 86 97 3.0 8.0 0.00 0.00 0.00 47 1011.3
20180716133417 86 87 1.0 4.0 0.00 0.00 0.00 47 1011.3
20180716132417 86 80 2.0 5.0 0.00 0.00 0.00 48 1011.3
20180716131417 86 119 1.0 11.0 0.00 0.00 0.00 49 1011.4
20180716130417 86 77 2.0 9.0 0.00 0.00 0.00 47 1011.6
20180716125417 86 348 1.0 6.0 0.00 0.00 0.00 49 1011.6
20180716124417 85 52 3.0 7.0 0.00 0.00 0.00 49 1011.6
20180716123417 85 129 4.0 9.0 0.00 0.00 0.00 49 1011.7
20180716122417 86 95 1.0 6.0 0.00 0.00 0.00 49 1011.7
20180716121417 86 90 4.0 9.0 0.00 0.00 0.00 48 1011.8
20180716120417 86 79 1.0 5.0 0.00 0.00 0.00 50 1011.9
20180716115417 85 67 4.0 10.0 0.00 0.00 0.00 47 1012.0
20180716114415 86 104 4.0 9.0 0.00 0.00 0.00 51 1012.0
20180716113417 86 27 2.0 3.0 0.00 0.00 0.00 48 1012.0
20180716112417 86 94 3.0 8.0 0.00 0.00 0.00 49 1012.1
20180716111417 85 70 1.0 2.0 0.00 0.00 0.00 49 1012.1
20180716110417 85 53 2.0 7.0 0.00 0.00 0.00 50 1012.3
20180716105417 84 44 4.0 9.0 0.00 0.00 0.00 49 1012.4
20180716104417 84 107 3.0 14.0 0.00 0.00 0.00 52 1012.4
20180716103417 84 97 7.0 14.0 0.00 0.00 0.00 51 1012.2
20180716102417 84 113 4.0 10.0 0.00 0.00 0.00 50 1012.4
20180716101417 85 106 4.0 10.0 0.00 0.00 0.00 50 1012.4
20180716100417 84 117 5.0 13.0 0.00 0.00 0.00 51 1012.4
20180716095417 84 60 2.0 9.0 0.00 0.00 0.00 51 1012.4
20180716094417 84 87 2.0 7.0 0.00 0.00 0.00 53 1012.4
20180716093417 84 141 1.0 6.0 0.00 0.00 0.00 52 1012.4
20180716092417 83 101 5.0 10.0 0.00 0.00 0.00 52 1012.4
20180716091417 83 77 4.0 8.0 0.00 0.00 0.00 53 1012.5
20180716090417 82 73 2.0 5.0 0.00 0.00 0.00 56 1012.6
20180716085415 81 237 1.0 3.0 0.00 0.00 0.00 57 1012.6
20180716084415 81 67 0.0 5.0 0.00 0.00 0.00 56 1012.6
20180716083415 82 89 1.0 5.0 0.00 0.00 0.00 56 1012.6
20180716082415 82 106 0.0 5.0 0.00 0.00 0.00 57 1012.6
20180716081415 82 66 3.0 10.0 0.00 0.00 0.00 55 1012.6
20180716080416 82 37 2.0 5.0 0.00 0.00 0.00 55 1012.6
20180716075415 82 200 0.0 4.0 0.00 0.00 0.00 57 1012.6
20180716074415 81 357 1.0 4.0 0.00 0.00 0.00 58 1012.6
20180716073415 81 23 1.0 4.0 0.00 0.00 0.00 59 1012.6
20180716072415 81 30 1.0 3.0 0.00 0.00 0.00 59 1012.7
20180716071415 81 73 3.0 6.0 0.00 0.00 0.00 58 1012.7
20180716070415 80 67 1.0 3.0 0.00 0.00 0.00 61 1012.6
20180716065415 79 360 0.0 2.0 0.00 0.00 0.00 64 1012.6
20180716064415 78 355 0.0 3.0 0.00 0.00 0.00 66 1012.6
20180716063415 78 21 0.0 2.0 0.00 0.00 0.00 67 1012.7
20180716062415 77 10 1.0 3.0 0.00 0.00 0.00 67 1012.7
20180716061415 77 22 1.0 3.0 0.00 0.00 0.00 68 1012.8
20180716060415 77 114 1.0 5.0 0.00 0.00 0.00 68 1012.9
20180716055415 76 106 0.0 2.0 0.00 0.00 0.00 70 1013.0
20180716054415 76 127 0.0 2.0 0.00 0.00 0.00 73 1013.0
20180716053415 75 100 0.0 1.0 0.00 0.00 0.00 74 1013.0
20180716052415 74 38 0.0 2.0 0.00 0.00 0.00 77 1013.0
20180716051415 72 34 0.0 2.0 0.00 0.00 0.00 82 1012.9
20180716050415 71 343 0.0 2.0 0.00 0.00 0.00 84 1013.0
20180716045415 69 355 0.0 1.0 0.00 0.00 0.00 86 1012.9
20180716044415 68 0.0 0.0 0.00 0.00 0.00 89 1013.0
20180716043415 67 0.0 0.0 0.00 0.00 0.00 90 1013.0
20180716042415 66 0.0 1.0 0.00 0.00 0.00 91 1013.0
20180716041415 65 0.0 0.0 0.00 0.00 0.00 92 1013.0
20180716040415 64 19 0.0 1.0 0.00 0.00 0.00 92 1012.9
20180716035415 63 0.0 0.0 0.00 0.00 0.00 92 1012.9
20180716034415 62 0.0 0.0 0.00 0.00 0.00 92 1012.8
20180716033415 61 0.0 0.0 0.00 0.00 0.00 92 1012.9
20180716032416 61 0.0 0.0 0.00 0.00 0.00 92 1012.8
20180716031415 61 0.0 0.0 0.00 0.00 0.00 92 1012.8
20180716030415 60 0.0 0.0 0.00 0.00 0.00 92 1012.8
20180716025415 60 0.0 0.0 0.00 0.00 0.00 92 1012.8
20180716024415 60 0.0 0.0 0.00 0.00 0.00 91 1012.8
20180716023415 60 0.0 0.0 0.00 0.00 0.00 91 1012.6
20180716022415 60 0.0 0.0 0.00 0.00 0.00 91 1012.7
20180716021415 60 0.0 0.0 0.00 0.00 0.00 91 1012.6
20180716020415 60 0.0 0.0 0.00 0.00 0.00 90 1012.5
20180716015415 61 0.0 0.0 0.00 0.00 0.00 90 1012.5
20180716014415 61 0.0 0.0 0.00 0.00 0.00 89 1012.3
20180716013415 61 0.0 0.0 0.00 0.00 0.00 89 1012.3
20180716012415 62 0.0 0.0 0.00 0.00 0.00 88 1012.3
20180716011415 62 0.0 0.0 0.00 0.00 0.00 88 1012.3
20180716010415 62 0.0 0.0 0.00 0.00 0.00 87 1012.2
20180716005418 62 0.0 0.0 0.00 0.00 0.00 86 1012.3
20180716004415 62 0.0 0.0 0.00 0.00 0.00 86 1012.2
20180716003415 63 0.0 0.0 0.00 0.00 0.00 86 1012.2
20180716002415 63 19 0.0 1.0 0.00 0.00 0.00 85 1012.1
20180716001415 63 0.0 1.0 0.00 0.00 0.00 85 1012.1
20180716000415 63 0.0 0.0 0.00 0.00 0.00 84 1012.2
20180715235415 63 19 0.0 1.0 0.00 0.00 0.00 84 1012.1
20180715234415 63 0.0 0.0 0.00 0.00 0.00 84 1012.2
20180715233415 63 0.0 0.0 0.00 0.00 0.00 84 1012.1
20180715232415 64 0.0 0.0 0.00 0.00 0.00 84 1012.1
20180715231415 64 0.0 0.0 0.00 0.00 0.00 83 1012.1
20180715230415 64 0.0 0.0 0.00 0.00 0.00 83 1012.0
20180715225415 64 0.0 0.0 0.00 0.00 0.00 83 1011.9
20180715224415 64 0.0 0.0 0.00 0.00 0.00 82 1011.9
20180715223415 65 0.0 0.0 0.00 0.00 0.00 82 1011.8
20180715222415 65 0.0 0.0 0.00 0.00 0.00 81 1011.8
20180715221415 65 0.0 0.0 0.00 0.00 0.00 81 1011.8
20180715220416 66 0.0 0.0 0.00 0.00 0.00 80 1011.8
20180715215415 66 0.0 0.0 0.00 0.00 0.00 79 1011.8
20180715214415 67 19 1.0 2.0 0.00 0.00 0.00 76 1011.8
20180715212415 68 51 0.0 1.0 0.00 0.00 0.00 77 1011.7
20180715211415 68 0.0 0.0 0.00 0.00 0.00 76 1011.7
20180715210415 68 0.0 0.0 0.00 0.00 0.00 75 1011.7
20180715205417 69 0.0 0.0 0.00 0.00 0.00 74 1011.6
20180715204417 69 0.0 0.0 0.00 0.00 0.00 74 1011.7
20180715203417 69 0.0 0.0 0.00 0.00 0.00 73 1011.6
20180715202418 70 0.0 0.0 0.00 0.00 0.00 72 1011.6
20180715201417 70 0.0 0.0 0.00 0.00 0.00 71 1011.6
20180715200417 71 0.0 0.0 0.00 0.00 0.00 71 1011.5
20180715195418 71 0.0 0.0 0.00 0.00 0.00 70 1011.3
20180715194417 71 0.0 1.0 0.00 0.00 0.00 69 1011.4
20180715193417 72 0.0 0.0 0.00 0.00 0.00 68 1011.3
20180715192417 73 0.0 0.0 0.00 0.00 0.00 67 1011.3
20180715191417 74 0.0 0.0 0.00 0.00 0.00 65 1011.2
20180715190417 74 0.0 0.0 0.00 0.00 0.00 63 1011.1
20180715185417 75 0.0 0.0 0.00 0.00 0.00 61 1011.1
20180715184417 76 51 0.0 1.0 0.00 0.00 0.00 59 1010.9
20180715183417 78 0.0 0.0 0.00 0.00 0.00 57 1010.8
20180715182417 79 0.0 0.0 0.00 0.00 0.00 56 1010.8
20180715181417 80 0.0 0.0 0.00 0.00 0.00 54 1010.7
20180715180417 81 0.0 0.0 0.00 0.00 0.00 53 1010.7
20180715175417 81 0.0 0.0 0.00 0.00 0.00 53 1010.6
20180715174417 82 0.0 0.0 0.00 0.00 0.00 51 1010.6
20180715173417 83 0.0 0.0 0.00 0.00 0.00 50 1010.5
20180715172417 83 0.0 0.0 0.00 0.00 0.00 50 1010.5
20180715171415 83 0.0 0.0 0.00 0.00 0.00 49 1010.5
20180715170415 84 75 1.0 2.0 0.00 0.00 0.00 47 1010.6
20180715165415 83 86 0.0 1.0 0.00 0.00 0.00 46 1010.5
20180715164415 84 69 1.0 3.0 0.00 0.00 0.00 46 1010.5
20180715163415 84 119 0.0 5.0 0.00 0.00 0.00 46 1010.3
20180715162415 83 62 1.0 5.0 0.00 0.00 0.00 45 1010.3